User: anonymous   Login
Location: Unspecified
(0.0000°N, 0.0000°E)
Time: 01:44:51
(UTC+00:00)
Language:

SAR-Lupe-5 - Orbit

View from above orbital plane
View from above orbital plane
View from above satellite
View from above satellite

Ground track
Ground track

The orbit data is extracted from the following two-line orbital elements,

1 33244U 08036A   15227.94735604 0.00004700  00000-0  17405-3 0    02
2 33244  98.1042 335.1513 0002000 278.7966  81.2032 15.27685865    09
Epoch (UTC): 15 August 2015 22:44:11
Eccentricity: 0.0002000
inclination: 98.1042°
perigee height: 481 km
apogee height: 484 km
right ascension of ascending node: 335.1513°
argument of perigee: 278.7966°
revolutions per day: 15.27685865
mean anomaly at epoch: 81.2032°
orbit number at epoch: 0

The dashed part of the orbit path shows where the satellite is in the earth's shadow,  

DLR